Regional Weather Roundup
Issued by NWS

Home | Current Version | Previous Version | Graphics & Text | Print | Product List | Glossary On
Versions: 1 2 3 4 5 6 7 8 9 10 11 12 13 14 15 16 17 18 19 20 21 22 23 24 25 26 27 28 29 30 31 32 33 34 35 36 37 38 39 40 41 42 43 44 45 46 47 48 49 50
000
ASUS43 KLMK 302210
RWRKY
KENTUCKY REGIONAL WEATHER ROUNDUP
NATIONAL WEATHER SERVICE LOUISVILLE KY
600 PM EDT SAT MAY 30 2015

NOTE "FAIR" INDICATES FEW OR NO CLOUDS BELOW 12,000 FEET
WITH NO SIGNIFICANT WEATHER AND/OR OBSTRUCTIONS TO VISIBILITY.

KYZ001>023-026-027-061>063-070>075-302300-
WESTERN AND SOUTH CENTRAL KENTUCKY

CITY           SKY/WX    TMP DP  RH WIND       PRES   REMARKS
PADUCAH        CLOUDY    72  68  87 S12G18    29.90S
HENDERSON      PTSUNNY   70  64  83 S13       29.92F
OWENSBORO      PTSUNNY   72  67  84 S15       29.94R
HOPKINSVILLE   RAIN      79  68  69 SW25      29.96F
BOWLING GREEN  PTSUNNY   81  65  58 S16G25    29.99F
GLASGOW        MOSUNNY   78  65  65 SW8       30.00F
$$

KYZ024-025-028>034-038-045-046-053-302300-
NORTH CENTRAL KENTUCKY

CITY           SKY/WX    TMP DP  RH WIND       PRES   REMARKS
LOUISVILLE/SDF PTSUNNY   83  67  58 S13       29.95F
LOUISVILLE/LOU MOSUNNY   81  67  62 S13G18    29.97F
FORT KNOX      PTSUNNY   82  68  62 S18G25    29.96F
$$

KYZ035>037-039>044-047>052-055>060-089>105-302300-
NORTHEAST KENTUCKY

CITY           SKY/WX    TMP DP  RH WIND       PRES   REMARKS
LEXINGTON      PTSUNNY   82  65  56 S13       30.01F
COVINGTON      PTSUNNY   82  66  58 S13G21    29.96F
FRANKFORT      MOSUNNY   84  62  47 S15G23    29.98F
$$

KYZ054-064>069-076>088-106>120-302300-
SOUTHEAST KENTUCKY

CITY           SKY/WX    TMP DP  RH WIND       PRES   REMARKS
JACKSON        SUNNY     84  59  42 MISG      30.06F
LONDON         MOSUNNY   85  55  35 S13       30.05F
SOMERSET       SUNNY     81  57  44 SW9G20    30.05S
MIDDLESBORO    SUNNY     85  59  42 SW10      30.07F
MONTICELLO     CLEAR     85  63  47 S13       30.05F
$$




USA.gov is the U.S. government's official web portal to all federal, state and local government web resources and services.